Weather in Kirillovo

Russia / Nizhny Novgorod Oblast'     57°07′14″N   45°25′53″E
temp.,
°C
wind,
m/s
gust,
m/s
humid.,
%
clouds,
%
prec.,
mm/h
press.,
hPa
HPBL,
m
9 may, sun
sun900:00+10se41489100 0.0 1009549
03:00+9se41394100 0.0 1008368
06:00+11se31191100 0.3 1008424
09:00+15sse61468100 0.4 1007822
12:00+19s5959100 0.2 10071419
15:00+14sse61390100 2.4 1008957
18:00+15se41190100 0.7 1009561
21:00+12nne2298100 6.1 101055
10 may, mon
mon1000:00+11nnw1198100 0.3 101220
03:00+10nw3697100 0.8 1015333
06:00+7nnw3796100 0.8 1018330
09:00+7nnw4895100 0.9 1020419
12:00+7n3896100 1.1 1023374
15:00+8n4894100 1.6 1025430
18:00+8nne3691100 0.0 1026459
21:00+6n3897100 0.0 1028285
11 may, tue
tue1100:00+5nne3109720 0.0 1028259
03:00+5nne39975 0.0 1028251
06:00+7nne39905 0.0 1029285
09:00+13ne45680 0.0 1029557
12:00+18ne34550 0.0 1029855
15:00+20ne33530 0.0 10281124
18:00+18ene25680 0.0 1029189
21:00+12ne24910 0.0 102968
12 may, wed
wed1200:00+11ene25920 0.0 103087
03:00+10ene25900 0.0 103079
06:00+13ne36810 0.0 1030175
09:00+19e36610 0.0 1029545
12:00+23e464929 0.0 10281555
15:00+24se464069 0.0 10272437
18:00+21sse256168 0.0 1027175
21:00+16ese227963 0.0 102721
13 may, thu
thu1300:00+14ese238275 0.0 102850
03:00+13ese247994 0.0 102784
06:00+15ese267470 0.0 1027170
09:00+21se4850100 0.0 1027745
12:00+24se57375 0.0 10261755
15:00+24se473982 0.0 10241632
18:00+21se3955100 0.0 1024388
21:00+16se257297 0.0 1024101